Satellite: NOAA-11
Catalog number: 19531
Epoch time: 12193.75267111
Element set: 0988
Inclination: 098.7317 deg
RA of node: 278.3958 deg
Eccentricity: 0.0011516
Arg of perigee: 150.2068 deg
Mean anomaly: 209.9759 deg
Mean motion: 14.14972400 rev/day
Decay rate: -1.70e-06 rev/day^2
Epoch rev: 22798
Checksum: 325
Satellite: NOAA-12
Catalog number: 21263
Epoch time: 12193.96498948
Element set: 0492
Inclination: 098.7274 deg
RA of node: 215.5121 deg
Eccentricity: 0.0014621
Arg of perigee: 126.8187 deg
Mean anomaly: 233.4337 deg
Mean motion: 14.25505971 rev/day
Decay rate: 5.7e-07 rev/day^2
Epoch rev: 10008
Checksum: 302
Satellite: MET-3/5
Catalog number: 21655
Epoch time: 12194.82612269
Element set: 455
Inclination: 082.5582 deg
RA of node: 134.0780 deg
Eccentricity: 0.0012201
Arg of perigee: 256.2547 deg
Mean anomaly: 103.7218 deg
Mean motion: 13.17039208 rev/day
Decay rate: -1.0e-08 rev/day^2
Epoch rev: 526
Checksum: 267
Satellite: MET-2/21
Catalog number: 22782
Epoch time: 12194.53768822
Element set: 469
Inclination: 082.5465 deg
RA of node: 012.3952 deg
Eccentricity: 0.0024089
Arg of perigee: 081.6493 deg
Mean anomaly: 278.7405 deg
Mean motion: 13.83684601 rev/day
Decay rate: -1.6e-07 rev/day^2
Epoch rev: 95267
Checksum: 330
Satellite: OKEAN-4
Catalog number: 23317
Epoch time: 12193.91515611
Element set: 0986
Inclination: 082.5385 deg
RA of node: 008.0833 deg
Eccentricity: 0.0019615
Arg of perigee: 270.9839 deg
Mean anomaly: 088.9128 deg
Mean motion: 14.83840658 rev/day
Decay rate: 1.043e-05 rev/day^2
Epoch rev: 95847
Checksum: 334
Satellite: NOAA-14
Catalog number: 23455
Epoch time: 12193.95644991
Element set: 0968
Inclination: 098.8255 deg
RA of node: 277.1436 deg
Eccentricity: 0.0008546
Arg of perigee: 248.3571 deg
Mean anomaly: 111.6690 deg
Mean motion: 14.13908074 rev/day
Decay rate: 4.9e-07 rev/day^2
Epoch rev: 90429
Checksum: 339
Satellite: NOAA-15
Catalog number: 25338
Epoch time: 12193.77100055
Element set: 0330
Inclination: 098.6918 deg
RA of node: 180.4492 deg
Eccentricity: 0.0011336
Arg of perigee: 041.7844 deg
Mean anomaly: 318.4185 deg
Mean motion: 14.25093402 rev/day
Decay rate: 3.65e-06 rev/day^2
Epoch rev: 73635
Checksum: 293
Satellite: RESURS
Catalog number: 25394
Epoch time: 12194.76212420
Element set: 134
Inclination: 098.3223 deg
RA of node: 181.6549 deg
Eccentricity: 0.0001640
Arg of perigee: 125.9501 deg
Mean anomaly: 234.1831 deg
Mean motion: 14.24290255 rev/day
Decay rate: -2.0e-08 rev/day^2
Epoch rev: 72804
Checksum: 258
Satellite: FENGYUN1
Catalog number: 25730
Epoch time: 12194.76727470
Element set: 647
Inclination: 098.8453 deg
RA of node: 153.3043 deg
Eccentricity: 0.0018624
Arg of perigee: 294.8658 deg
Mean anomaly: 065.0577 deg
Mean motion: 14.09656679 rev/day
Decay rate: 1.085e-05 rev/day^2
Epoch rev: 67821
Checksum: 340
Satellite: OKEAN-0
Catalog number: 25860
Epoch time: 12193.96644578
Element set: 0694
Inclination: 097.9374 deg
RA of node: 156.1053 deg
Eccentricity: 0.0001366
Arg of perigee: 106.2691 deg
Mean anomaly: 253.8668 deg
Mean motion: 14.74237389 rev/day
Decay rate: 4.08e-06 rev/day^2
Epoch rev: 69822
Checksum: 341
Satellite: NOAA-16
Catalog number: 26536
Epoch time: 12193.75450587
Element set: 0817
Inclination: 099.0920 deg
RA of node: 236.2559 deg
Eccentricity: 0.0010715
Arg of perigee: 019.5940 deg
Mean anomaly: 340.5646 deg
Mean motion: 14.12757593 rev/day
Decay rate: 2.03e-06 rev/day^2
Epoch rev: 60850
Checksum: 311
Satellite: NOAA-17
Catalog number: 27453
Epoch time: 12193.88854791
Element set: 0768
Inclination: 098.3350 deg
RA of node: 219.6769 deg
Eccentricity: 0.0012848
Arg of perigee: 084.8481 deg
Mean anomaly: 275.4154 deg
Mean motion: 14.24457241 rev/day
Decay rate: 3.09e-06 rev/day^2
Epoch rev: 52227
Checksum: 342
Satellite: NOAA-18
Catalog number: 28654
Epoch time: 12193.87282602
Element set: 0249
Inclination: 099.0471 deg
RA of node: 152.1675 deg
Eccentricity: 0.0015272
Arg of perigee: 085.5023 deg
Mean anomaly: 274.7915 deg
Mean motion: 14.11672742 rev/day
Decay rate: 4.39e-06 rev/day^2
Epoch rev: 36804
Checksum: 314
Satellite: NOAA-19
Catalog number: 33591
Epoch time: 12193.88618826
Element set: 0439
Inclination: 098.8633 deg
RA of node: 133.3692 deg
Eccentricity: 0.0013493
Arg of perigee: 314.7744 deg
Mean anomaly: 045.2347 deg
Mean motion: 14.11360431 rev/day
Decay rate: 4.67e-06 rev/day^2
Epoch rev: 17649
Checksum: 327
/EX
SB KEPS @ AMSAT $ORB12194.M
Orbital Elements 12194.MISC
HR AMSAT ORBITAL ELEMENTS FOR MANNED AND MISCELLANEOUS SATELLITES
FROM WA5QGD FORT WORTH,TX July 12, 2012
Send SUBSCRIBE KEPS/UNSUBSCRIBE KEPS to majordomo at amsat.org only
BID: ORB12194.M
TO ALL RADIO AMATEURS BT
Satellite: HUBBLE
Catalog number: 20580
Epoch time: 12193.03576048
Element set: 32
Inclination: 028.4712 deg
RA of node: 347.4631 deg
Eccentricity: 0.0003127
Arg of perigee: 316.5196 deg
Mean anomaly: 043.5274 deg
Mean motion: 15.02610750 rev/day
Decay rate: 1.824e-05 rev/day^2
Epoch rev: 1832
Checksum: 254
Satellite: ISS
Catalog number: 25544
Epoch time: 12194.96999841
Element set: 915
Inclination: 051.6411 deg
RA of node: 353.5041 deg
Eccentricity: 0.0007507
Arg of perigee: 147.7076 deg
Mean anomaly: 353.7040 deg
Mean motion: 15.56107188 rev/day
Decay rate: 1.2478e-04 rev/day^2
Epoch rev: 78202
Checksum: 309
Satellite: CO-58
Catalog number: 28895
Epoch time: 12193.67573780
Element set: 223
Inclination: 097.9094 deg
RA of node: 058.8676 deg
Eccentricity: 0.0019056
Arg of perigee: 076.8021 deg
Mean anomaly: 283.5314 deg
Mean motion: 14.60671249 rev/day
Decay rate: 6.98e-06 rev/day^2
Epoch rev: 35723
Checksum: 353
Satellite: FALCON
Catalog number: 30776
Epoch time: 12194.81749567
Element set: 388
Inclination: 035.4280 deg
RA of node: 120.2726 deg
Eccentricity: 0.0001848
Arg of perigee: 269.0052 deg
Mean anomaly: 091.0465 deg
Mean motion: 15.07726910 rev/day
Decay rate: 4.189e-05 rev/day^2
Epoch rev: 29412
Checksum: 304
Satellite: MAST
Catalog number: 31126
Epoch time: 12193.92499888
Element set: 0507
Inclination: 097.8737 deg
RA of node: 203.5776 deg
Eccentricity: 0.0094643
Arg of perigee: 034.1038 deg
Mean anomaly: 326.6194 deg
Mean motion: 14.54193664 rev/day
Decay rate: 6.69e-06 rev/day^2
Epoch rev: 27786
Checksum: 348
Satellite: CAPE1
Catalog number: 31130
Epoch time: 12194.53258688
Element set: 514
Inclination: 097.8821 deg
RA of node: 200.5164 deg
Eccentricity: 0.0102358
Arg of perigee: 045.4934 deg
Mean anomaly: 315.4566 deg
Mean motion: 14.52984161 rev/day
Decay rate: 1.010e-05 rev/day^2
Epoch rev: 27745
Checksum: 288
Satellite: COMPASS
Catalog number: 32787
Epoch time: 12193.61153704
Element set: 0352
Inclination: 097.7977 deg
RA of node: 254.4062 deg
Eccentricity: 0.0014644
Arg of perigee: 345.2751 deg
Mean anomaly: 014.8044 deg
Mean motion: 14.84102521 rev/day
Decay rate: 2.684e-05 rev/day^2
Epoch rev: 22743
Checksum: 290
Satellite: AAUSAT2
Catalog number: 32788
Epoch time: 12194.65432432
Element set: 344
Inclination: 097.7991 deg
RA of node: 255.8215 deg
Eccentricity: 0.0014451
Arg of perigee: 342.8555 deg
Mean anomaly: 017.2184 deg
Mean motion: 14.84433833 rev/day
Decay rate: 2.267e-05 rev/day^2
Epoch rev: 22761
Checksum: 311
Satellite: DO-64
Catalog number: 32789
Epoch time: 12193.86767579
Element set: 359
Inclination: 097.8098 deg
RA of node: 257.1677 deg
Eccentricity: 0.0013552
Arg of perigee: 341.7221 deg
Mean anomaly: 018.3572 deg
Mean motion: 14.85986722 rev/day
Decay rate: 4.190e-05 rev/day^2
Epoch rev: 22754
Checksum: 360
Satellite: CO-66
Catalog number: 32791
Epoch time: 12194.62262455
Element set: 343
Inclination: 097.7977 deg
RA of node: 255.1153 deg
Eccentricity: 0.0015267
Arg of perigee: 341.6312 deg
Mean anomaly: 018.4325 deg
Mean motion: 14.83505960 rev/day
Decay rate: 2.198e-05 rev/day^2
Epoch rev: 22751
Checksum: 312
Satellite: RS-30
Catalog number: 32953
Epoch time: 12194.72408805
Element set: 953
Inclination: 082.5034 deg
RA of node: 279.2598 deg
Eccentricity: 0.0017535
Arg of perigee: 250.3552 deg
Mean anomaly: 109.5642 deg
Mean motion: 12.43025469 rev/day
Decay rate: 1.0e-07 rev/day^2
Epoch rev: 18773
Checksum: 301
Satellite: TACSAT-3
Catalog number: 35001
Epoch time: 12121.72616188
Element set: 0001
Inclination: 040.4259 deg
RA of node: 351.8840 deg
Eccentricity: 0.0007146
Arg of perigee: 275.2650 deg
Mean anomaly: 085.0693 deg
Mean motion: 16.45157000 rev/day
Decay rate: 1.5204951e-01 rev/day^2
Epoch rev: 16699
Checksum: 280
Satellite: PHARMSAT
Catalog number: 35002
Epoch time: 12194.57296414
Element set: 979
Inclination: 040.4550 deg
RA of node: 263.7272 deg
Eccentricity: 0.0008508
Arg of perigee: 072.3319 deg
Mean anomaly: 287.8418 deg
Mean motion: 15.93775573 rev/day
Decay rate: 2.58078e-03 rev/day^2
Epoch rev: 17836
Checksum: 334
Satellite: METEOR-M
Catalog number: 35865
Epoch time: 12194.90461606
Element set: 583
Inclination: 098.6529 deg
RA of node: 248.7464 deg
Eccentricity: 0.0002454
Arg of perigee: 000.7354 deg
Mean anomaly: 359.3826 deg
Mean motion: 14.21865627 rev/day
Decay rate: -1.1e-07 rev/day^2
Epoch rev: 14625
Checksum: 310
Satellite: RS-38
Catalog number: 35869
Epoch time: 12194.85158932
Element set: 590
Inclination: 098.6481 deg
RA of node: 248.6857 deg
Eccentricity: 0.0004499
Arg of perigee: 349.8050 deg
Mean anomaly: 010.3034 deg
Mean motion: 14.22078083 rev/day
Decay rate: 3.4e-07 rev/day^2
Epoch rev: 14626
Checksum: 328
Satellite: JUGNU
Catalog number: 37839
Epoch time: 12193.40903270
Element set: 184
Inclination: 019.9611 deg
RA of node: 211.4844 deg
Eccentricity: 0.0019457
Arg of perigee: 127.3951 deg
Mean anomaly: 232.8224 deg
Mean motion: 14.12065795 rev/day
Decay rate: 6.20e-06 rev/day^2
Epoch rev: 3867
Checksum: 293
